Change the Weather History Date:

Wednesday, September 18, 2013

  Actual Average Record
Temperature  
Mean Temperature 68 °F 63 °F  
Max Temperature 76 °F 75 °F 92 °F (1920)
Min Temperature 59 °F 51 °F 32 °F (1929)
Degree Days  
Heating Degree Days 0 4  
Month to date heating degree days 35 40  
Since 1 July heating degree days 46 54  
Cooling Degree Days 3 2  
Month to date cooling degree days 103 67  
Year to date cooling degree days 852 794  
Growing Degree Days 17 (Base 50)    
Moisture  
Dew Point 61 °F    
Average Humidity 77    
Maximum Humidity 90    
Minimum Humidity 64    
Precipitation  
Precipitation 0.20 in 0.11 in 2.53 in (1960)
Month to date precipitation 1.35 2.06  
Year to date precipitation 33.35 27.72  
Snow  
Snow 0.00 in 0.00 in 0.00 in ()
Month to date snowfall 0.0 0.0  
Since 1 July snowfall 0.0 0.0  
Since 1 September snowfall 0.0 0.0  
Snow Depth 0.00 in    
Sea Level Pressure  
Sea Level Pressure 30.02 in    
Wind  
Wind Speed 9 mph (SSE)    
Max Wind Speed 16 mph    
Max Gust Speed 21 mph    
Visibility 9 miles    
Events Rain , Thunderstorm    
T = Trace of Precipitation, MM = Missing Value Source: NWS Daily Summary

Daily Weather History Graph

Daily Weather History Graph

Search for Another Location

Airport or City:

Trip Planner

Search our weather history database for the weather conditions in past years. The results will help you decide how hot, cold, wet, or windy it might be!

Date:

Astronomy

Sep. 18, 2013 Rise Set
Actual Time 6:39 AM CDT 7:00 PM CDT
Civil Twilight 6:11 AM CDT 7:28 PM CDT
Nautical Twilight 5:38 AM CDT 8:01 PM CDT
Astronomical Twilight 5:04 AM CDT 8:34 PM CDT
Moon 6:22 PM CDT (9/18) 5:41 AM CDT (9/18)
Length of Visible Light 13h 16m
Length of Day
12h 20m
Waxing Gibbous, 99% of the Moon is Illuminated
Sep 18
Waxing Gibbous
Sep 19
Full
Sep 26
Last Quarter
Oct 4
New
Oct 11
First Quarter

Hourly Weather History & Observations

Time (CDT) Temp. Dew Point Humidity Pressure Visibility Wind Dir Wind Speed Gust Speed Precip Events Conditions
12:54 AM 60.1 °F 54.0 °F 80% 30.11 in 10.0 mi SSE 8.1 mph - N/A   Mostly Cloudy
1:54 AM 61.0 °F 53.1 °F 75% 30.11 in 10.0 mi SSE 9.2 mph - N/A   Overcast
2:54 AM 61.0 °F 53.1 °F 75% 30.11 in 10.0 mi South 5.8 mph - N/A   Overcast
3:54 AM 60.1 °F 55.0 °F 83% 30.09 in 6.0 mi SSE 3.5 mph - 0.02 in Rain Light Rain
4:54 AM 59.0 °F 55.0 °F 87% 30.07 in 10.0 mi SSE 4.6 mph - 0.00 in Rain Light Rain
4:56 AM 59.0 °F 55.4 °F 88% 30.07 in 10.0 mi SE 4.6 mph - 0.00 in Rain , Thunderstorm Light Thunderstorms and Rain
5:54 AM 60.1 °F 55.9 °F 86% 30.07 in 10.0 mi SE 3.5 mph - 0.00 in Thunderstorm Thunderstorm
6:14 AM 60.8 °F 55.4 °F 82% 30.07 in 10.0 mi ESE 4.6 mph - N/A   Overcast
6:54 AM 60.1 °F 55.9 °F 86% 30.07 in 10.0 mi SSE 5.8 mph - N/A   Overcast
7:54 AM 62.1 °F 57.0 °F 84% 30.07 in 10.0 mi SSE 8.1 mph - N/A   Overcast
8:54 AM 64.9 °F 57.0 °F 75% 30.04 in 10.0 mi South 10.4 mph - N/A   Mostly Cloudy
9:54 AM 72.0 °F 60.1 °F 66% 30.04 in 10.0 mi South 11.5 mph - N/A   Scattered Clouds
10:54 AM 75.0 °F 63.0 °F 66% 30.03 in 10.0 mi South 15.0 mph - N/A   Mostly Cloudy
11:54 AM 75.9 °F 63.0 °F 64% 30.01 in 10.0 mi SSW 16.1 mph - N/A   Overcast
12:54 PM 73.9 °F 64.0 °F 71% 30.02 in 7.0 mi SW 9.2 mph - 0.00 in Rain Light Rain
1:54 PM 70.0 °F 66.0 °F 87% 30.01 in 7.0 mi SSW 8.1 mph - 0.06 in Rain Light Rain
2:04 PM 69.8 °F 66.2 °F 88% 30.00 in 6.0 mi South 4.6 mph - 0.01 in Rain , Thunderstorm Light Thunderstorms and Rain
2:54 PM 69.1 °F 66.9 °F 93% 29.96 in 5.0 mi SSE 9.2 mph - 0.11 in Rain Light Rain
3:54 PM 73.0 °F 69.1 °F 87% 29.93 in 9.0 mi SSE 6.9 mph - 0.01 in   Overcast
4:54 PM 75.0 °F 69.1 °F 82% 29.92 in 9.0 mi South 8.1 mph - N/A   Mostly Cloudy
5:54 PM 75.9 °F 68.0 °F 76% 29.91 in 10.0 mi SSE 8.1 mph - N/A   Mostly Cloudy
6:54 PM 72.0 °F 66.9 °F 84% 29.92 in 10.0 mi SE 5.8 mph - N/A   Scattered Clouds
7:54 PM 70.0 °F 66.0 °F 87% 29.93 in 10.0 mi SSE 9.2 mph - N/A   Scattered Clouds
8:54 PM 69.1 °F 64.0 °F 84% 29.93 in 10.0 mi South 11.5 mph - N/A   Partly Cloudy
9:54 PM 68.0 °F 64.0 °F 87% 29.93 in 10.0 mi SSE 8.1 mph - N/A   Scattered Clouds
10:54 PM 69.1 °F 64.9 °F 87% 29.93 in 10.0 mi South 9.2 mph - N/A   Partly Cloudy
11:54 PM 70.0 °F 66.0 °F 87% 29.93 in 10.0 mi South 9.2 mph - 0.00 in Rain Light Rain